Starlink 11531

operational
NORAD ID: 62841 Int'l Des: 2025-019 Owner: SPXS Country: US Constellation: starlink
LEOCIRCULAR

About Starlink 11531

Description loading...

Live Position

Loading 3D Globe...

Upcoming Passes

Altitude History

Altitude vs Time

uPlot chart will show altitude changes over time

Two-Line Element Set

1 62841U 25019N 25303.24662598 .00218477 00000-0 16551-2 0 9992
2 62841 42.9982 12.4078 0001395 305.2559 54.8178 15.70935342 43364
Epoch: Oct 30, 2025 • Age: 11 hours

Current Status

Altitude 355.4 km
Velocity 7.70 km/s
Sub-Earth Point 7.23°N, 117.26°W
Launch Date Jan 27, 2025
Age 0.7 years
Type internet

Technical Details

Classification Payload
Mass 960.00 kg
Dry Mass 910.00 kg
Total Mass 960.00 kg
Length 0.30 m
Diameter 4.10 m
Span 29.00 m
Shape Box + pan
Manufacturer SPXS
Bus Type Starlink V2MD
Phase Status In Orbit
Owner/State SPXS/US

Large Constellations

Loading constellations...